Weather History for KHYR - October, 2011

Change the Weather History Date:

Thursday, October 20, 2011

  Actual Average Record
Temperature  
Mean Temperature 37 °F -  
Max Temperature 50 °F 62 °F 78 °F (2003)
Min Temperature 25 °F 35 °F 21 °F (1999)
Degree Days  
Heating Degree Days 28    
Moisture  
Dew Point 31 °F    
Average Humidity 74    
Maximum Humidity 93    
Minimum Humidity 46    
Precipitation  
Precipitation 0.02 in - - ()
Sea Level Pressure  
Sea Level Pressure 29.95 in    
Wind  
Wind Speed 5 mph (North)    
Max Wind Speed 8 mph    
Max Gust Speed -    
Visibility 10 miles    
Events Rain    
Averages and records for this station are not official NWS values.
T = Trace of Precipitation, MM = Missing Value Source: NWS Daily Summary

Daily Weather History Graph

Daily Weather History Graph

Search for Another Location

Airport or City:

Trip Planner

Search our weather history database for the weather conditions in past years. The results will help you decide how hot, cold, wet, or windy it might be!

Date:

Astronomy

Oct. 20, 2011 Rise Set
Actual Time 7:29 AM CDT 6:11 PM CDT
Civil Twilight 6:58 AM CDT 6:41 PM CDT
Nautical Twilight 6:24 AM CDT 7:16 PM CDT
Astronomical Twilight 5:49 AM CDT 7:50 PM CDT
Moon No Moon Rise 2:41 PM CDT (10/20)
Length of Visible Light 11h 42m
Length of Day
10h 42m
Last Quarter, 44% of the Moon is Illuminated
Oct 20
Last Quarter
Oct 26
New
Nov 2
First Quarter
Nov 10
Full
Nov 18
Last Quarter

Hourly Weather History & Observations

Time (CDT) Temp. Windchill Dew Point Humidity Pressure Visibility Wind Dir Wind Speed Gust Speed Precip Events Conditions
12:53 AM 39.9 °F 36.7 °F 37.9 °F 93% 30.02 in 10.0 mi NNE 4.6 mph - 0.00 in Rain Light Rain
1:53 AM 39.0 °F 34.8 °F 37.0 °F 93% 30.01 in 6.0 mi North 5.8 mph - 0.01 in Rain Light Rain
2:05 AM 39.2 °F 33.6 °F 37.4 °F 93% 29.97 in 6.0 mi North 8.1 mph - 0.00 in Rain Light Rain
2:26 AM 39.2 °F 37.0 °F 37.4 °F 93% 29.96 in 10.0 mi Variable 3.5 mph - 0.00 in Rain Light Rain
2:53 AM 39.0 °F 34.8 °F 36.0 °F 89% 29.99 in 7.0 mi Variable 5.8 mph - 0.00 in Rain Light Rain
3:13 AM 39.2 °F 35.9 °F 35.6 °F 87% 29.95 in 8.0 mi Variable 4.6 mph - 0.00 in Rain Light Rain
3:53 AM 37.9 °F 33.5 °F 36.0 °F 93% 29.98 in 9.0 mi Variable 5.8 mph - 0.00 in Rain Light Rain
4:53 AM 37.9 °F 33.5 °F 36.0 °F 93% 29.96 in 9.0 mi Variable 5.8 mph - 0.01 in Rain Light Rain
5:32 AM 37.4 °F 32.8 °F 35.6 °F 93% 29.93 in 10.0 mi Variable 5.8 mph - 0.00 in   Overcast
6:53 AM 37.9 °F 35.5 °F 33.1 °F 83% 29.96 in 10.0 mi Variable 3.5 mph - N/A   Overcast
7:53 AM 37.9 °F 34.4 °F 33.1 °F 83% 29.96 in 10.0 mi Variable 4.6 mph - N/A   Overcast
8:53 AM 39.0 °F 34.0 °F 32.0 °F 76% 29.96 in 10.0 mi Variable 6.9 mph - N/A   Overcast
9:53 AM 39.9 °F 34.5 °F 32.0 °F 73% 29.95 in 10.0 mi NNE 8.1 mph - N/A   Overcast
10:53 AM 41.0 °F 36.4 °F 33.1 °F 73% 29.95 in 10.0 mi Variable 6.9 mph - N/A   Overcast
11:53 AM 43.0 °F 38.8 °F 30.9 °F 62% 29.94 in 10.0 mi Variable 6.9 mph - N/A   Mostly Cloudy
12:01 PM 44.6 °F 41.4 °F 30.2 °F 57% 29.91 in 10.0 mi Variable 5.8 mph - N/A   Scattered Clouds
12:15 PM 42.8 °F 38.0 °F 30.2 °F 61% 29.90 in 10.0 mi NNW 8.1 mph - N/A   Mostly Cloudy
12:22 PM 44.6 °F 40.2 °F 32.0 °F 61% 29.91 in 10.0 mi NW 8.1 mph - N/A   Scattered Clouds
12:34 PM 44.6 °F 40.7 °F 30.2 °F 57% 29.91 in 10.0 mi Variable 6.9 mph - N/A   Mostly Cloudy
12:43 PM 44.6 °F 40.7 °F 30.2 °F 57% 29.90 in 10.0 mi Variable 6.9 mph - N/A   Scattered Clouds
12:53 PM 46.0 °F 43.1 °F 30.9 °F 56% 29.93 in 10.0 mi Variable 5.8 mph - N/A   Scattered Clouds
1:53 PM 46.9 °F - 30.0 °F 52% 29.92 in 10.0 mi Variable 6.9 mph - N/A   Scattered Clouds
2:53 PM 48.0 °F - 30.0 °F 50% 29.91 in 10.0 mi Variable 6.9 mph - N/A   Partly Cloudy
3:53 PM 46.9 °F - 28.9 °F 50% 29.91 in 10.0 mi Calm Calm - N/A   Clear
4:53 PM 46.9 °F - 27.0 °F 46% 29.92 in 10.0 mi Variable 3.5 mph - N/A   Clear
5:53 PM 45.0 °F - 26.1 °F 48% 29.94 in 10.0 mi Calm Calm - N/A   Clear
7:53 PM 30.9 °F - 26.1 °F 82% 29.96 in 10.0 mi Calm Calm - N/A   Clear
8:53 PM 28.9 °F - 26.1 °F 89% 29.97 in 10.0 mi Calm Calm - N/A   Clear
9:53 PM 27.0 °F - 24.1 °F 89% 29.98 in 10.0 mi Calm Calm - N/A   Clear
10:53 PM 26.1 °F - 23.0 °F 88% 29.98 in 10.0 mi Calm Calm - N/A   Clear
11:53 PM 25.0 °F - 21.9 °F 88% 29.98 in 10.0 mi Calm Calm - N/A   Clear